"Pseudo-MPEC" for C0VEYF5

Created 2024 Dec 1 13:31:05 UT using Find_Orb

Click here for an explanation of pseudo-MPECs

 
 Astrometry: 
     C0VEYF5* C2024 11 26.48589410 34 02.334+17 39 15.01   ~BQDV 22.55GVNEOCPV00
     C0VEYF5  C2024 11 26.49152810 34 02.647+17 39 06.26   ~BQDV 22.58GVNEOCPV00
     C0VEYF5  C2024 11 26.49714210 34 02.957+17 38 58.06   ~BQDV 23.58GVNEOCPV00
     C0VEYF5  C2024 11 26.50275110 34 03.324+17 38 47.98   ~BQDV 23.49GVNEOCPV00

Station data:
(V00) Kitt Peak-Bok  (N31.963125 W111.600190)  US/Arizona.  Observers T. A.
   Pruyne, B. M. Africano, E. J. Christensen, G. A. Farneth, D. C. Fuls, A.
   R. Gibbs, A. D. Grauer, H. Gröller, J. A. Johnson, R. A. Kowalski, S. M.
   Larson, G. J. Leonard, D. Rankin, R. L. Seaman, F. C. Shelly, K. W.
   Wierzchoś. 2.25-m reflector + 4x4K mosaic CCD.

Orbital elements:  C0VEYF5
   Perihelion 2024 Oct 9.33420 +/- 73 TT =  8:01:14 (JD 2460592.83420)
Epoch 2024 Nov 26.0 TT = JDT 2460640.5   Earth MOID: 0.1712      AutoNEOCP
M  15.59116037 +/- 100              (J2000 ecliptic)
n   0.32709321 +/- 0.605            Peri.  109.28099 +/- 110
a   2.08619561 +/- 2.57             Node   295.13853 +/- 24
e   0.5085076 +/- 0.241             Incl.   12.70834 +/- 52
P   3.01323                H 21.95  G  0.15   U 12.4  SR
q 1.02534916 +/- 0.508    Q 3.14704206 +/- 11.8
From 4 observations 2024 Nov. 26 (24.3 min); mean residual 0".35
Residuals in arcseconds: 
241126 V00  .16+  .22-    241126 V00  .33-  .70+    
241126 V00  .08-  .02-    241126 V00  .24+  .46-    

Ephemerides (geocentric):
Date (UTC) HH   RA             Dec           delta  r     elong  mag " sig PA
---- --------  ------------   ------------  ------ ------ -----  --- --------
2024 12 01 14  10 38 44.136   +15 26 48.42  .62035 1.2015  94.1 23.3  52d  80
2024 12 01 15  10 38 46.113   +15 25 45.10  .62035 1.2018  94.1 23.3  52d  80
2024 12 01 16  10 38 48.084   +15 24 41.82  .62034 1.2020  94.1 23.3  52d  80
2024 12 01 17  10 38 50.049   +15 23 38.56  .62034 1.2023  94.1 23.3  52d  80
2024 12 01 18  10 38 52.010   +15 22 35.33  .62034 1.2025  94.2 23.3  52d  80
2024 12 01 19  10 38 53.964   +15 21 32.13  .62033 1.2027  94.2 23.3  52d  80
2024 12 01 20  10 38 55.914   +15 20 28.95  .62033 1.2030  94.2 23.3  52d  80
2024 12 01 21  10 38 57.858   +15 19 25.81  .62033 1.2032  94.3 23.3  52d  80
2024 12 01 22  10 38 59.796   +15 18 22.69  .62032 1.2035  94.3 23.3  52d  80
2024 12 01 23  10 39 01.729   +15 17 19.59  .62032 1.2037  94.3 23.3  52d  80
2024 12 02 00  10 39 03.657   +15 16 16.53  .62031 1.2039  94.3 23.3  52d  80
2024 12 02 01  10 39 05.579   +15 15 13.49  .62031 1.2042  94.4 23.3  52d  80
2024 12 02 02  10 39 07.496   +15 14 10.48  .62031 1.2044  94.4 23.3  52d  80
2024 12 02 03  10 39 09.407   +15 13 07.50  .62030 1.2047  94.4 23.3  53d  80
2024 12 02 04  10 39 11.313   +15 12 04.55  .62030 1.2049  94.5 23.3  53d  80
2024 12 02 05  10 39 13.214   +15 11 01.62  .62029 1.2052  94.5 23.3  53d  79
2024 12 02 06  10 39 15.109   +15 09 58.72  .62029 1.2054  94.5 23.3  53d  79
2024 12 02 07  10 39 16.999   +15 08 55.85  .62028 1.2056  94.5 23.3  54d  79
2024 12 02 08  10 39 18.883   +15 07 53.01  .62028 1.2059  94.6 23.3  54d  79
2024 12 02 09  10 39 20.762   +15 06 50.19  .62027 1.2061  94.6 23.3  54d  79
2024 12 02 10  10 39 22.635   +15 05 47.40  .62027 1.2064  94.6 23.3  54d  79
2024 12 02 11  10 39 24.503   +15 04 44.64  .62026 1.2066  94.7 23.3  54d  79
2024 12 02 12  10 39 26.365   +15 03 41.91  .62026 1.2069  94.7 23.3  54d  79
2024 12 02 13  10 39 28.222   +15 02 39.20  .62025 1.2071  94.7 23.3  55d  79
2024 12 02 14  10 39 30.074   +15 01 36.52  .62025 1.2074  94.7 23.3  55d  79
2024 12 02 15  10 39 31.920   +15 00 33.87  .62024 1.2076  94.8 23.3  55d  79
2024 12 02 16  10 39 33.761   +14 59 31.25  .62024 1.2078  94.8 23.3  55d  79
2024 12 02 17  10 39 35.596   +14 58 28.66  .62023 1.2081  94.8 23.3  55d  79
2024 12 02 18  10 39 37.426   +14 57 26.09  .62023 1.2083  94.9 23.3  55d  79
2024 12 02 19  10 39 39.250   +14 56 23.55  .62022 1.2086  94.9 23.3  56d  79
2024 12 02 20  10 39 41.069   +14 55 21.04  .62021 1.2088  94.9 23.3  56d  79
2024 12 02 21  10 39 42.882   +14 54 18.55  .62021 1.2091  94.9 23.3  56d  79
2024 12 02 22  10 39 44.690   +14 53 16.10  .62020 1.2093  95.0 23.3  56d  79
2024 12 02 23  10 39 46.493   +14 52 13.67  .62020 1.2096  95.0 23.3  56d  79
2024 12 03 00  10 39 48.290   +14 51 11.27  .62019 1.2098  95.0 23.3  56d  79
2024 12 03 01  10 39 50.082   +14 50 08.89  .62018 1.2100  95.1 23.3  56d  79
2024 12 03 02  10 39 51.868   +14 49 06.55  .62018 1.2103  95.1 23.3  57d  79
2024 12 03 03  10 39 53.648   +14 48 04.23  .62017 1.2105  95.1 23.3  57d  79
2024 12 03 04  10 39 55.423   +14 47 01.94  .62016 1.2108  95.1 23.3  57d  79
2024 12 03 05  10 39 57.193   +14 45 59.68  .62016 1.2110  95.2 23.3  57d  79
2024 12 03 06  10 39 58.957   +14 44 57.44  .62015 1.2113  95.2 23.3  57d  79
2024 12 03 07  10 40 00.716   +14 43 55.23  .62014 1.2115  95.2 23.3  57d  79
2024 12 03 08  10 40 02.470   +14 42 53.06  .62014 1.2118  95.3 23.3  58d  79
2024 12 03 09  10 40 04.217   +14 41 50.90  .62013 1.2120  95.3 23.3  58d  79
2024 12 03 10  10 40 05.960   +14 40 48.78  .62012 1.2123  95.3 23.3  58d  78
2024 12 03 11  10 40 07.697   +14 39 46.68  .62011 1.2125  95.3 23.3  58d  78
2024 12 03 12  10 40 09.428   +14 38 44.62  .62011 1.2128  95.4 23.3  59d  78
2024 12 03 13  10 40 11.154   +14 37 42.58  .62010 1.2130  95.4 23.3  59d  79